Location: Caltech
(34.1382°N, 118.1253°W)
Time: 10:16:24
(UTC-07:00)

Cosmos 2219 - Visible Passes

Search period start: 03 July 2015 00:00
Search period end: 13 July 2015 00:00
Orbit: 835 x 859 km, 71.1° (Epoch: 02 July)

Date Brightness Start Highest point End Pass type
(mag) Time Alt. Az. Time Alt. Az. Time Alt. Az.
03 Jul 3.3 23:40:29 69° N 23:40:29 69° N 23:45:27 10° NNE visible
04 Jul 3.2 23:26:44 77° NNW 23:26:44 77° NNW 23:32:02 10° NNE visible
05 Jul 5.9 01:10:55 10° WNW 01:11:35 10° NW 01:11:52 10° NW visible
05 Jul 3.1 23:12:54 84° W 23:12:58 84° WNW 23:18:37 10° NNE visible
06 Jul 5.9 00:56:59 10° WNW 00:58:08 10° NW 00:58:54 10° NW visible
06 Jul 3.1 22:58:55 71° SSW 22:59:33 86° WNW 23:05:12 10° NNE visible
07 Jul 5.9 00:43:14 10° WNW 00:44:41 11° NW 00:45:46 10° NW visible
07 Jul 3.1 22:44:47 54° SSW 22:46:07 88° WNW 22:51:47 10° NNE visible
08 Jul 5.9 00:29:33 10° WNW 00:31:14 11° NW 00:32:34 10° NW visible
08 Jul 3.1 22:30:27 38° SSW 22:32:42 90° SE 22:38:22 10° NNE visible
09 Jul 5.9 00:15:54 10° WNW 00:17:48 11° NW 00:19:20 10° NW visible
09 Jul 3.1 22:15:46 24° SSW 22:19:17 88° ESE 22:24:57 10° NNE visible
10 Jul 5.9 00:02:16 10° WNW 00:04:21 12° NW 00:06:05 10° NNW visible
10 Jul 3.1 22:00:32 11° SSW 22:05:52 86° ESE 22:11:31 10° NNE visible
10 Jul 6.0 23:48:40 10° WNW 23:50:54 12° NW 23:52:48 10° NNW visible
11 Jul 3.1 21:46:51 10° SSW 21:52:27 84° ESE 21:58:06 10° NNE visible
11 Jul 6.0 23:35:04 10° WNW 23:37:27 12° NW 23:39:32 10° NNW visible
12 Jul 3.1 21:33:26 10° SSW 21:39:02 81° ESE 21:44:40 10° NNE visible
12 Jul 6.0 23:21:29 10° W 23:24:00 13° NW 23:26:13 10° NNW visible
